Aberdeen, SD

11:12 AM CDT on October 20, 2017 (GMT -0500)
Aberdeen Regional

Weather History for KABR - October, 2013

Change the Weather History Date:

Wednesday, October 23, 2013

  Actual Average Record
Temperature  
Mean Temperature 36 °F 42 °F  
Max Temperature 40 °F 54 °F 80 °F (1963)
Min Temperature 31 °F 30 °F 5 °F (1895)
Degree Days  
Heating Degree Days 29 23  
Month to date heating degree days 453 416  
Since 1 July heating degree days 619 690  
Cooling Degree Days 0 0  
Month to date cooling degree days 0 0  
Year to date cooling degree days 580 523  
Moisture  
Dew Point 29 °F    
Average Humidity 80    
Maximum Humidity 100    
Minimum Humidity 59    
Precipitation  
Precipitation 0.06 in 0.06 in 1.21 in (2015)
Month to date precipitation 4.35 1.61  
Year to date precipitation 20.55 20.09  
Snow  
Snow 0.50 in - - ()
Month to date snowfall 0.5  
Since 1 July snowfall 0.5  
Snow Depth 0.00 in    
Sea Level Pressure  
Sea Level Pressure 30.13 in    
Wind  
Wind Speed 8 mph (NNW)    
Max Wind Speed 21 mph    
Max Gust Speed 25 mph    
Visibility 6 miles    
Events Snow    
T = Trace of Precipitation, MM = Missing Value Source: NWS Daily Summary

Daily Weather History Graph

Daily Weather History Graph

Search for Another Location

Airport or City:

Trip Planner

Search our weather history database for the weather conditions in past years. The results will help you decide how hot, cold, wet, or windy it might be!

Date:

Astronomy

Oct. 23, 2013 Rise Set
Actual Time 8:01 AM CDT 6:34 PM CDT
Civil Twilight 7:30 AM CDT 7:04 PM CDT
Nautical Twilight 6:56 AM CDT 7:38 PM CDT
Astronomical Twilight 6:21 AM CDT 8:13 PM CDT
Moon 9:59 PM CDT (10/23) 12:26 PM CDT (10/23)
Length of Visible Light 11h 33m
Length of Day
10h 33m
Waning Gibbous, 79% of the Moon is Illuminated
Oct 23
Waning Gibbous
Oct 26
Last Quarter
Nov 3
New
Nov 9
First Quarter
Nov 17
Full

Hourly Weather History & Observations

Time (CDT) Temp. Windchill Dew Point Humidity Pressure Visibility Wind Dir Wind Speed Gust Speed Precip Events Conditions
12:53 AM 34.0 °F 31.0 °F 30.0 °F 85% 30.10 in 10.0 mi West 3.5 mph - N/A   Overcast
1:53 AM 34.0 °F - 28.9 °F 82% 30.10 in 10.0 mi Calm Calm - N/A   Overcast
2:53 AM 33.1 °F - 30.0 °F 89% 30.10 in 10.0 mi Calm Calm - N/A   Overcast
3:53 AM 33.1 °F 30.0 °F 30.9 °F 92% 30.09 in 10.0 mi WSW 3.5 mph - N/A   Overcast
4:53 AM 33.1 °F 28.7 °F 28.9 °F 85% 30.09 in 5.0 mi West 4.6 mph - 0.00 in Snow Light Snow
5:53 AM 32.0 °F 28.7 °F 30.0 °F 92% 30.09 in 6.0 mi West 3.5 mph - 0.00 in Snow Light Snow
6:53 AM 32.0 °F 28.7 °F 30.9 °F 96% 30.09 in 2.5 mi North 3.5 mph - 0.00 in Snow Light Snow
7:02 AM 32.0 °F 28.7 °F 30.2 °F 93% 30.06 in 1.2 mi North 3.5 mph - 0.01 in Snow Light Snow
7:43 AM 30.2 °F - 30.2 °F 100% 30.06 in 1.8 mi Calm Calm - 0.03 in Snow Light Snow
7:53 AM 30.9 °F - 30.9 °F 100% 30.10 in 1.5 mi Calm Calm - 0.03 in Snow Light Snow
8:02 AM 30.2 °F - 30.2 °F 100% 30.07 in 1.2 mi Calm Calm - 0.01 in Snow Light Snow
8:09 AM 30.2 °F - 30.2 °F 100% 30.07 in 1.5 mi Calm Calm - 0.01 in Snow Light Snow
8:17 AM 30.2 °F - 30.2 °F 100% 30.07 in 1.0 mi Calm Calm - 0.02 in Snow Light Snow
8:24 AM 30.2 °F - 30.2 °F 100% 30.07 in 0.8 mi Calm Calm - 0.02 in Snow Light Snow
8:30 AM 30.2 °F - 30.2 °F 100% 30.08 in 1.0 mi Calm Calm - 0.02 in Snow Light Snow
8:45 AM 32.0 °F - 30.2 °F 93% 30.08 in 1.5 mi Calm Calm - 0.02 in Snow Light Snow
8:53 AM 32.0 °F - 30.9 °F 96% 30.12 in 1.2 mi Calm Calm - 0.03 in Snow Light Snow
9:05 AM 32.0 °F - 30.2 °F 93% 30.08 in 1.5 mi Calm Calm - 0.00 in Snow Light Snow
9:19 AM 32.0 °F 27.5 °F 30.2 °F 93% 30.09 in 2.0 mi North 4.6 mph - 0.00 in Snow Light Snow
9:27 AM 32.0 °F 26.4 °F 30.2 °F 93% 30.09 in 1.2 mi North 5.8 mph - 0.00 in Snow Light Snow
9:35 AM 32.0 °F 27.5 °F 30.2 °F 93% 30.09 in 1.5 mi North 4.6 mph - 0.00 in Snow Light Snow
9:45 AM 32.0 °F 26.4 °F 30.2 °F 93% 30.09 in 3.0 mi North 5.8 mph - 0.00 in Snow Light Snow
9:51 AM 32.0 °F 26.4 °F 30.2 °F 93% 30.09 in 4.0 mi North 5.8 mph - 0.00 in Snow Light Snow
9:52 AM 32.0 °F 26.4 °F 30.9 °F 96% 30.14 in 4.0 mi North 5.8 mph - 0.00 in Snow Light Snow
10:00 AM 32.0 °F 26.4 °F 30.2 °F 93% 30.10 in 6.0 mi North 5.8 mph - N/A   Overcast
10:40 AM 32.0 °F 24.8 °F 30.2 °F 93% 30.11 in 10.0 mi North 8.1 mph - N/A   Overcast
10:53 AM 33.1 °F 25.5 °F 30.9 °F 92% 30.16 in 10.0 mi North 9.2 mph - N/A   Overcast
11:11 AM 33.8 °F 27.0 °F 30.2 °F 87% 30.12 in 10.0 mi North 8.1 mph - N/A   Overcast
11:53 AM 35.1 °F 27.9 °F 30.0 °F 82% 30.17 in 10.0 mi North 9.2 mph - N/A   Overcast
12:36 PM 35.6 °F 28.0 °F 30.2 °F 81% 30.13 in 10.0 mi North 10.4 mph - N/A   Overcast
12:53 PM 36.0 °F 29.6 °F 30.9 °F 82% 30.18 in 10.0 mi North 8.1 mph - N/A   Overcast
1:53 PM 36.0 °F 28.0 °F 30.0 °F 79% 30.18 in 10.0 mi North 11.5 mph - N/A   Overcast
2:09 PM 35.6 °F 26.6 °F 26.6 °F 70% 30.14 in 10.0 mi North 13.8 mph - N/A   Overcast
2:53 PM 37.0 °F 28.1 °F 25.0 °F 62% 30.19 in 10.0 mi North 15.0 mph - N/A   Overcast
3:53 PM 37.9 °F 30.5 °F 25.0 °F 60% 30.19 in 10.0 mi NNW 11.5 mph - N/A   Overcast
4:53 PM 37.9 °F 30.0 °F 26.1 °F 62% 30.20 in 10.0 mi NW 12.7 mph - N/A   Mostly Cloudy
5:53 PM 37.9 °F 30.9 °F 26.1 °F 62% 30.20 in 10.0 mi NW 10.4 mph - N/A   Overcast
6:53 PM 37.0 °F 29.3 °F 27.0 °F 67% 30.21 in 10.0 mi NW 11.5 mph - N/A   Overcast
7:53 PM 37.0 °F 29.8 °F 27.0 °F 67% 30.23 in 10.0 mi NNW 10.4 mph - N/A   Overcast
8:53 PM 36.0 °F 27.5 °F 27.0 °F 70% 30.24 in 10.0 mi NNW 12.7 mph - N/A   Overcast
9:53 PM 35.1 °F 27.9 °F 27.0 °F 72% 30.25 in 10.0 mi NW 9.2 mph - N/A   Overcast
10:53 PM 35.1 °F 26.4 °F 27.0 °F 72% 30.26 in 10.0 mi NW 12.7 mph - N/A   Overcast
11:53 PM 35.1 °F 26.9 °F 28.0 °F 76% 30.27 in 10.0 mi NW 11.5 mph - N/A   Overcast